User: anonymous   Login
Location: Caltech
(34.1382°N, 118.1253°W)
Time: 05:05:49
(UTC-07:00)
Language:

SL-16 R/B - Orbit

View from above orbital plane
View from above orbital plane
View from above satellite
View from above satellite

Ground track
Ground track

The orbit data is extracted from the following two-line orbital elements,

1 31793U 07029B   16274.40244428  .00000295  00000-0  17931-3 0  9999
2 31793  70.9757 214.8353 0002113 257.4000 241.1385 14.14368425477988
Epoch (UTC): 30 September 2016 09:39:31
Eccentricity: 0.0002113
inclination: 70.9757°
perigee height: 843 km
apogee height: 846 km
right ascension of ascending node: 214.8353°
argument of perigee: 257.4000°
revolutions per day: 14.14368425
mean anomaly at epoch: 241.1385°
orbit number at epoch: 47798

The dashed part of the orbit path shows where the satellite is in the earth's shadow,  

DLR